Simultaneous Nadir Overpasses (SNOs) Predictions

Prediction of SNOs between GOES-14 and NOAA-20 Satellite Orbit:

Table of predicted SNOs for the next 14.0 days since TLE Epoch: 7/10/2020
Index Date Time (GOES-14) GOES-14 Lat,Lon NOAA-20 Lat,Lon Distance(km) Time Diff (sec)
1 07/11/2020 08:30:18 -0.24,-104.26 0.29,-106.65 272.45 80
2 07/12/2020 08:14:12 -0.22,-104.26 -0.71,-102.11 244.94 80
3 07/13/2020 20:33:29 0.26,-104.47 -0.43,-107.43 337.06 80
4 07/14/2020 20:17:24 0.24,-104.48 0.62,-102.90 180.50 80
5 07/16/2020 08:36:30 -0.28,-104.28 0.61,-108.16 442.26 80
6 07/17/2020 08:20:26 -0.27,-104.29 -0.44,-103.64 74.84 80
7 07/19/2020 20:23:37 0.29,-104.49 0.29,-104.41 9.04 80
8 07/22/2020 08:23:59 -0.31,-104.30 -0.12,-105.15 96.64 80
9 07/23/2020 08:07:53 -0.29,-104.30 -1.11,-100.61 420.23 80
